[[{"header":{"parameterUnit":"m.s-1","parameterCategory":1,"la1":30.2991,"la2":30.254,"lo1":-89.0895,"lo2":-89.0444,"dy":0.0017,"dx":0.0017,"nx":28,"ny":28,"refTime":"2025-01-31T03:00:00:Z","depth":0,"parameterNumber":2,"parameterNumberName":"U-component_of_WINDS"},"data":[0,0,0,0,0,0,0,0,0,0,0,0,0,0,0,0,0,0,0,0,0,0,0,0,0,0,0,0,0,0,0,0,0,0,0,0,0,0,0,0,0,0,0,0,0,0,0,0,0,0,0,0,0,0,0,0,0,0,0.2348,0.2348,0,0.2339,0.2339,0.2339,0.2315,0.2314,0.2314,0.2313,0.2305,0.2305,0.2305,0,0,0,0,0,0,0,0,0,0,0,0,0,0.2344,0.2344,0.2348,0.2348,0.2347,0.2339,0.2339,0.2339,0.2315,0.2314,0.2314,0.2313,0.2305,0.2305,0.2305,0,0,0,0,0,0,0,0,0,0,0,0,0,0.2342,0.2344,0.2348,0.2334,0.2333,0.2339,0.2339,0.2339,0.2315,0.2314,0.2313,0.2313,0.2304,0.2305,0.2305,0.2323,0,0,0.2306,0.2307,0,0,0,0,0,0,0,0,0.2342,0.2342,0.2337,0.2335,0.2334,0.2327,0.2334,0.2334,0.2315,0.2322,0.2313,0.2312,0.2313,0.2312,0.2313,0.2323,0.2322,0.2306,0.2307,0.2307,0.2307,0,0,0,0,0,0,0,0.2342,0.2342,0.2344,0.2336,0.2335,0.2329,0.2328,0.2334,0.2322,0.2321,0.232,0.2319,0.2312,0.2312,0.2312,0.2322,0.2306,0.2307,0.2307,0.2307,0.2347,0.2348,0,0,0,0,0,0,0.2344,0.2342,0.2344,0.2344,0.2336,0.233,0.2329,0.233,0.2322,0.232,0.2319,0.2318,0.2312,0.2312,0.2312,0.2332,0.2307,0.2307,0.2307,0.2346,0.2347,0.2348,0,0,0,0,0,0,0.2344,0.2344,0.2345,0.2343,0.2342,0.2331,0.2333,0.233,0.2331,0.232,0.2318,0.2322,0.2311,0.2311,0.2321,0.2332,0.2307,0.2308,0.2345,0.2347,0.2348,0.2373,0,0,0,0,0,0,0.2344,0.2344,0.2351,0.2343,0.2342,0.2354,0.2333,0.2331,0.2331,0.2329,0.2322,0.232,0.2311,0.232,0.2321,0.2332,0.2308,0.2344,0.2346,0.2347,0.2371,0.2375,0.2378,0,0,0,0,0,0.2344,0.2358,0.2351,0.2352,0.235,0.2354,0.2354,0.2343,0.2332,0.2339,0.2332,0.232,0.233,0.2321,0.2322,0.2333,0.2344,0.2346,0.2347,0.237,0.2374,0.2378,0,0,0,0,0,0,0.2368,0.2357,0.2349,0.2362,0.2359,0.235,0.2358,0.2348,0.2348,0.2346,0.2332,0.2331,0.2342,0.2339,0.2329,0.235,0.2335,0.2337,0.2352,0.2356,0.236,0.236,0.2308,0,0,0,0,0,0.2375,0.2379,0.2369,0.2381,0.238,0.237,0.2371,0.2362,0.2359,0.2358,0.2352,0.235,0.2352,0.2354,0.2356,0.2371,0.2369,0.2379,0.2383,0.2386,0.2387,0.2395,0.2399,0.2354,0.2354,0.2354,0,0,0.2389,0.2383,0.2387,0.2386,0.2383,0.2387,0.2369,0.2374,0.2378,0.2359,0.2367,0.2363,0.2359,0.2372,0.2377,0.2369,0.2399,0.2388,0.239,0.239,0.2397,0.2402,0.2405,0.2356,0.2355,0.2355,0,0,0.2416,0.2413,0.2422,0.242,0.2416,0.2408,0.2411,0.2404,0.24,0.2408,0.2395,0.2399,0.2403,0.2401,0.2401,0.2429,0.2418,0.243,0.2448,0.2456,0.2459,0.2462,0.2472,0.2476,0.2432,0.2432,0.2432,0,0.2434,0.244,0.2428,0.2435,0.2435,0.2419,0.2428,0.2426,0.2423,0.2424,0.2415,0.2421,0.2417,0.2429,0.2436,0.2436,0.2439,0.243,0.246,0.2463,0.2465,0.2474,0.2478,0.2433,0.2433,0.2433,0.2433,0,0.2462,0.2467,0.2475,0.2472,0.2473,0.2481,0.2471,0.2474,0.2466,0.246,0.2468,0.2464,0.2464,0.2467,0.2459,0.2477,0.2473,0.2462,0.2447,0.2471,0.248,0.2483,0.2435,0.2435,0.2434,0.2434,0,0,0.2503,0.2495,0.2498,0.2496,0.2491,0.2495,0.2502,0.2503,0.2505,0.2504,0.251,0.2515,0.2505,0.2505,0.2497,0.2504,0.2526,0.2493,0.2492,0.2499,0.2546,0.2553,0.2558,0.2519,0.252,0.252,0.2546,0,0.2529,0.2541,0.2531,0.2545,0.2549,0.2534,0.2541,0.2539,0.2534,0.2537,0.2531,0.2535,0.2522,0.2522,0.2528,0.2522,0.2535,0.252,0.2524,0.2525,0.2525,0.2562,0.257,0.2594,0.2549,0.255,0.255,0,0.256,0.256,0.2575,0.2569,0.257,0.2576,0.2576,0.258,0.2577,0.2573,0.2573,0.2563,0.257,0.2556,0.2566,0.2556,0.2557,0.2555,0.2555,0.2555,0.2538,0.2562,0.2602,0.2605,0.2555,0.2555,0.2555,0,0.2588,0.2592,0.2601,0.2601,0.2594,0.2599,0.2597,0.2593,0.2594,0.2595,0.2595,0.2597,0.2597,0.2598,0.2589,0.258,0.26,0.2585,0.2597,0.2597,0.2601,0.2601,0.2641,0.2603,0.2603,0.2603,0.2603,0,0.2617,0.2627,0.2614,0.2619,0.263,0.2619,0.2629,0.2625,0.2622,0.2627,0.2615,0.2619,0.2608,0.2611,0.2604,0.2613,0.2614,0.2611,0.2609,0.2611,0.2612,0.2611,0.2609,0.2604,0.2604,0.2604,0.2604,0,0.265,0.2642,0.2651,0.2644,0.2643,0.2651,0.2645,0.265,0.2645,0.2651,0.2652,0.2643,0.2647,0.2638,0.264,0.2636,0.2649,0.2644,0.265,0.2648,0.266,0.2659,0.2701,0.2706,0.2666,0.2666,0.2666,0,0.2668,0.2675,0.267,0.2672,0.267,0.2674,0.2676,0.2665,0.2667,0.2665,0.267,0.2673,0.2674,0.2681,0.2675,0.2677,0.2672,0.2687,0.2672,0.2675,0.2672,0.2671,0.2672,0.269,0.269,0.269,0.2691,0,0.2702,0.2698,0.27,0.2702,0.2704,0.2704,0.2703,0.2706,0.2695,0.2698,0.2702,0.2703,0.2706,0.2708,0.2709,0.2707,0.2697,0.2696,0.2698,0.2701,0.2703,0.2702,0.2657,0.2694,0.2694,0.2694,0.2694,0.2693,0.2728,0.2734,0.2731,0.2734,0.2732,0.2732,0.2737,0.2732,0.2735,0.2736,0.273,0.2735,0.2733,0.2733,0.2732,0.2736,0.2729,0.2733,0.2734,0.2735,0.2736,0.2704,0.2736,0.2736,0.2736,0.2735,0.2735,0,0.2761,0.2758,0.2761,0.2761,0.2764,0.2755,0.2754,0.2757,0.2761,0.276,0.2762,0.2767,0.2769,0.2764,0.2766,0.277,0.2766,0.2771,0.277,0.277,0.2743,0.274,0.2775,0.2775,0.2775,0.2775,0.2775,0.2775,0.2778,0.2787,0.2783,0.2791,0.2788,0.2793,0.2793,0.2793,0.2792,0.2798,0.28,0.2797,0.2794,0.2796,0.2798,0.2796,0.2798,0.2804,0.2801,0.2776,0.2772,0.2768,0.2765,0.2805,0.2805,0.2828,0.2828,0.2828]},{"header":{"parameterUnit":"m.s-1","parameterCategory":1,"la1":30.2991,"la2":30.254,"lo1":-89.0895,"lo2":-89.0444,"dy":0.0017,"dx":0.0017,"nx":28,"ny":28,"refTime":"2025-01-31T03:00:00:Z","depth":0,"parameterNumber":3,"parameterNumberName":"V-component_of_WINDS"},"data":[0,0,0,0,0,0,0,0,0,0,0,0,0,0,0,0,0,0,0,0,0,0,0,0,0,0,0,0,0,0,0,0,0,0,0,0,0,0,0,0,0,0,0,0,0,0,0,0,0,0,0,0,0,0,0,0,0,0,-3.3299,-3.3299,0,-3.3335,-3.3335,-3.3336,-3.3313,-3.3312,-3.3311,-3.331,-3.3344,-3.3346,-3.3347,0,0,0,0,0,0,0,0,0,0,0,0,0,-3.3209,-3.3211,-3.3299,-3.3299,-3.33,-3.3335,-3.3335,-3.3336,-3.3314,-3.3312,-3.3311,-3.331,-3.3343,-3.3345,-3.3348,0,0,0,0,0,0,0,0,0,0,0,0,0,-3.3247,-3.3211,-3.3299,-3.3293,-3.3293,-3.3335,-3.3335,-3.3336,-3.3314,-3.3312,-3.3311,-3.3309,-3.3342,-3.3345,-3.3348,-3.3397,0,0,-3.3357,-3.3358,0,0,0,0,0,0,0,0,-3.3245,-3.325,-3.3293,-3.3293,-3.3293,-3.3318,-3.3316,-3.3356,-3.3314,-3.3306,-3.331,-3.3308,-3.3336,-3.334,-3.335,-3.3398,-3.34,-3.3357,-3.3359,-3.336,-3.3361,0,0,0,0,0,0,0,-3.3242,-3.3248,-3.3313,-3.3294,-3.3294,-3.3288,-3.3292,-3.3324,-3.3329,-3.3306,-3.3305,-3.331,-3.3336,-3.3347,-3.335,-3.34,-3.3357,-3.3359,-3.3361,-3.3362,-3.3494,-3.3495,0,0,0,0,0,0,-3.324,-3.3246,-3.3312,-3.3314,-3.3265,-3.3291,-3.3295,-3.3312,-3.3329,-3.333,-3.3311,-3.3308,-3.3343,-3.3347,-3.3351,-3.3412,-3.336,-3.3362,-3.3364,-3.3492,-3.3494,-3.3496,0,0,0,0,0,0,-3.3238,-3.3246,-3.331,-3.328,-3.3288,-3.3294,-3.3313,-3.3313,-3.3324,-3.3332,-3.3333,-3.3321,-3.3342,-3.3347,-3.3387,-3.3413,-3.3364,-3.3366,-3.349,-3.3493,-3.3495,-3.3532,0,0,0,0,0,0,-3.3236,-3.3246,-3.3264,-3.328,-3.3289,-3.3346,-3.3315,-3.3315,-3.333,-3.3327,-3.3342,-3.3343,-3.3341,-3.3383,-3.3389,-3.3416,-3.3368,-3.3488,-3.3491,-3.3494,-3.3528,-3.3535,-3.3542,0,0,0,0,0,-3.3233,-3.3272,-3.3265,-3.3274,-3.3313,-3.3347,-3.3352,-3.335,-3.3332,-3.3351,-3.3356,-3.3343,-3.3409,-3.3387,-3.3394,-3.3422,-3.3486,-3.349,-3.3494,-3.3525,-3.3534,-3.3541,0,0,0,0,0,0,-3.3257,-3.3274,-3.3267,-3.3313,-3.3329,-3.3343,-3.3367,-3.3359,-3.3379,-3.3375,-3.3371,-3.3374,-3.3416,-3.3422,-3.3398,-3.3471,-3.3444,-3.345,-3.3466,-3.3474,-3.348,-3.3478,-3.3371,0,0,0,0,0,-3.3268,-3.3295,-3.3308,-3.3347,-3.3355,-3.336,-3.3375,-3.3372,-3.3388,-3.3394,-3.3402,-3.3418,-3.3442,-3.3458,-3.3481,-3.3529,-3.3533,-3.3552,-3.3558,-3.3564,-3.3569,-3.3597,-3.3606,-3.351,-3.3509,-3.3509,0,0,-3.329,-3.3302,-3.3319,-3.3352,-3.3364,-3.3392,-3.3366,-3.3396,-3.3417,-3.3398,-3.3437,-3.3444,-3.346,-3.3505,-3.3525,-3.3512,-3.3597,-3.3569,-3.3573,-3.3576,-3.3603,-3.3612,-3.362,-3.3512,-3.3512,-3.3511,0,0,-3.3345,-3.3357,-3.3392,-3.3406,-3.3426,-3.3429,-3.3437,-3.3454,-3.3458,-3.3497,-3.3485,-3.3509,-3.355,-3.3564,-3.3576,-3.364,-3.3629,-3.3647,-3.3682,-3.371,-3.3717,-3.3724,-3.3749,-3.3757,-3.3652,-3.3652,-3.3652,0,-3.337,-3.3412,-3.3411,-3.3443,-3.3459,-3.3445,-3.3481,-3.3494,-3.352,-3.353,-3.3515,-3.3569,-3.3579,-3.3628,-3.3645,-3.3654,-3.3664,-3.3646,-3.3717,-3.3723,-3.373,-3.3753,-3.3762,-3.3655,-3.3654,-3.3654,-3.3654,0,-3.3443,-3.3473,-3.3499,-3.3527,-3.3545,-3.3578,-3.3582,-3.3601,-3.3597,-3.3602,-3.3642,-3.3655,-3.3681,-3.3692,-3.3687,-3.3741,-3.3733,-3.3717,-3.369,-3.3741,-3.3763,-3.3772,-3.3658,-3.3657,-3.3656,-3.3656,0,0,-3.3513,-3.3542,-3.3551,-3.3565,-3.3587,-3.361,-3.3644,-3.3671,-3.3688,-3.3706,-3.3735,-3.3772,-3.3759,-3.3773,-3.377,-3.3794,-3.3847,-3.3776,-3.3777,-3.379,-3.3909,-3.3922,-3.3932,-3.3839,-3.3841,-3.3842,-3.3908,0,-3.3571,-3.3632,-3.3633,-3.3688,-3.3717,-3.3706,-3.3736,-3.3753,-3.3759,-3.3783,-3.3789,-3.3817,-3.3796,-3.3805,-3.3828,-3.3835,-3.3871,-3.383,-3.3867,-3.3868,-3.3864,-3.3943,-3.3956,-3.4017,-3.3917,-3.3918,-3.3919,0,-3.3646,-3.3671,-3.373,-3.3751,-3.3763,-3.3789,-3.3816,-3.384,-3.3859,-3.3862,-3.3879,-3.3873,-3.3908,-3.388,-3.3929,-3.3902,-3.3916,-3.3922,-3.3925,-3.3929,-3.3897,-3.3951,-3.4037,-3.4047,-3.3932,-3.3931,-3.393,0,-3.3694,-3.3741,-3.3783,-3.3795,-3.382,-3.3839,-3.385,-3.3868,-3.3886,-3.3908,-3.392,-3.3946,-3.396,-3.398,-3.3982,-3.3961,-3.4032,-3.4003,-3.4036,-3.4036,-3.4051,-3.4051,-3.4142,-3.4059,-3.4059,-3.4058,-3.4058,0,-3.376,-3.3797,-3.3806,-3.3832,-3.3873,-3.3874,-3.3915,-3.3924,-3.3941,-3.3969,-3.396,-3.3986,-3.3986,-3.4013,-3.4014,-3.4055,-3.4061,-3.4064,-3.4065,-3.4066,-3.4066,-3.4076,-3.4073,-3.4061,-3.406,-3.406,-3.4059,0,-3.382,-3.3827,-3.3873,-3.3894,-3.39,-3.393,-3.3948,-3.3973,-3.3979,-3.4014,-3.4023,-3.4032,-3.4063,-3.4067,-3.4102,-3.4103,-3.4154,-3.4148,-3.4148,-3.4147,-3.4181,-3.4178,-3.4283,-3.4298,-3.4203,-3.4204,-3.4205,0,-3.3862,-3.389,-3.3916,-3.3935,-3.3948,-3.3978,-3.3996,-3.3998,-3.4018,-3.4044,-3.4066,-3.4097,-3.4122,-3.4173,-3.4182,-3.421,-3.4206,-3.4241,-3.421,-3.4212,-3.4209,-3.4208,-3.4212,-3.4247,-3.4248,-3.4249,-3.425,0,-3.3936,-3.3939,-3.3967,-3.3997,-3.402,-3.4044,-3.4065,-3.4081,-3.4086,-3.4109,-3.4142,-3.4162,-3.42,-3.4231,-3.4259,-3.4269,-3.4261,-3.426,-3.4269,-3.4272,-3.4271,-3.4274,-3.4166,-3.4257,-3.4257,-3.4256,-3.4256,-3.4255,-3.3989,-3.4016,-3.4039,-3.4071,-3.4088,-3.411,-3.4135,-3.4146,-3.4174,-3.4207,-3.4206,-3.4243,-3.4263,-3.43,-3.4314,-3.4342,-3.4331,-3.4343,-3.4347,-3.4351,-3.4355,-3.4266,-3.4347,-3.4347,-3.4347,-3.4346,-3.4346,0,-3.4065,-3.408,-3.4109,-3.4142,-3.4168,-3.4159,-3.4184,-3.4206,-3.4239,-3.426,-3.4286,-3.4325,-3.4356,-3.4369,-3.4399,-3.442,-3.4417,-3.4428,-3.4427,-3.443,-3.4363,-3.4353,-3.443,-3.443,-3.443,-3.443,-3.443,-3.443,-3.4107,-3.4152,-3.4159,-3.4213,-3.4227,-3.4265,-3.428,-3.43,-3.4317,-3.4362,-3.4388,-3.4397,-3.4415,-3.4447,-3.4476,-3.4479,-3.4491,-3.4504,-3.4506,-3.4443,-3.4434,-3.4426,-3.4417,-3.4506,-3.4506,-3.4571,-3.4571,-3.4572]}]]